Weather in Guagua

Philippines     14°58′44″N   120°36′56″E
temp.,
°C
wind,
m/s
gust,
m/s
humid.,
%
clouds,
%
prec.,
mm/h
press.,
hPa
HPBL,
m
19 september, sun
sun1923:00+24n228611 0.0 101221
02:00+24n22875 0.0 101018
05:00+23nne11905 0.0 101015
08:00+27ne378053 0.0 1011629
11:00+26ene3783100 0.0 1011633
14:00+26e1483100 0.0 1009405
17:00+25s2388100 0.0 101099
20:00+24w1180100 0.0 101121
20 september, mon
mon2023:00+24nne0179100 0.0 101211
02:00+24ene118096 0.1 101011
05:00+24nne1186100 0.1 101016
08:00+24n119096 0.2 101252
11:00+26ene128496 0.1 1011288
14:00+28ene237193 0.1 1009861
17:00+26sse1182100 2.2 100916
20:00+24wnw118795 4.9 101112
21 september, tue
tue2123:00+24n118698 0.0 101112
02:00+23n119098 0.0 100914
05:00+23n118823 0.0 100917
08:00+26nne227825 0.0 1010299
11:00+29ene346821 0.0 10101045
14:00+30e3369100 1.6 1007958
17:00+27s1181100 7.1 100733
20:00+25nnw118799 9.9 101011
22 september, wed
wed2223:00+24n1286100 0.4 101014
02:00+24nne129094 0.4 100916
05:00+23nne229098 0.0 100916
08:00+26ene2381100 0.0 1011395
11:00+29se476992 0.1 10111249
14:00+29se4572100 3.8 1009896
17:00+26sse2583100 3.4 1010194
20:00+25s2387100 3.7 101250
23 september, thu
thu2323:00+24nw0190100 0.1 101212
02:00+24n1189100 0.1 101116
05:00+23nne1189100 0.0 101112
08:00+26ne2382100 0.0 1012395
11:00+29ene456898 0.0 10121158
14:00+30se2365100 0.1 1010940
17:00+28sse127681 0.7 1010165
20:00+25nne008298 1.1 101214